Retour au catalogue

STARLINK-32133

ActifCommunicationsVLEO
NORAD 60333·PAYLOAD·🇺🇸 United States

Lancé Aug 2, 2024 depuis Cape Canaveral Space Force Station

Loading…

Prochains Passages (prochaines 24 heures)

TLE

FraisSource: CelesTrak SupGP

Époque: Sep 14, 2026, 22:16 UTC

1 60333C 24136E   26257.92826389  .00054095  00000+0  15992-2 0  2577
2 60333  53.1571 275.5040 0001135  89.8900 296.2203 15.34344359    12

Suivez STARLINK-32133 en temps réel avec AllMySat

Download on the App Store